Weather in Bolshoy Barandat

Russia / Kemerovo Oblast     55°45′31″N   88°45′25″E
temp.,
°C
wind,
m/s
gust,
m/s
humid.,
%
clouds,
%
prec.,
mm/h
press.,
hPa
HPBL,
m
28 february, sun
sun2801:00−23w3692100 0.0 1038117
04:00−22wsw31191100 0.0 1038627
07:00−24w2489100 0.0 103982
10:00−22wsw2686100 0.0 1039368
13:00−17wsw3678100 0.0 1038811
16:00−15w1477100 0.0 1035544
19:00−21ese3396100 0.0 103426
22:00−20se2390100 0.0 103226
1 march, mon
mon101:00−18ese2388100 0.0 102946
04:00−16ese3497100 0.3 1026106
07:00−15ese3496100 0.8 1023123
10:00−13e3496100 0.7 1020136
13:00−10e3495100 1.6 1017192
16:00−9ene4595100 0.8 1015226
19:00−11ene5995100 1.3 1014245
22:00−11ene61095100 1.6 1012304
2 march, tue
tue201:00−11e71195100 3.6 1011328
04:00−12ene71195100 2.3 1010305
07:00−14ene61095100 3.7 1012325
10:00−15ne3595100 1.1 1014333
13:00−15ne3391100 1.3 1017297
16:00−14ene3494100 0.1 1018307
19:00−15ene3696100 0.4 1019228
22:00−16e4795100 0.4 1020262
3 march, wed
wed301:00−17e4597100 0.6 1019157
04:00−17ene3597100 0.2 1018124
07:00−17ene4796100 0.6 1019184
10:00−16ene5796100 0.3 1019211
13:00−15ene5895100 0.4 1018260
16:00−14ene689499 0.2 1019312
19:00−16ene599598 0.4 1020255
22:00−18e489695 0.2 1023199
4 march, thu
thu401:00−18e239897 0.6 102593
04:00−17n0097100 0.4 102620
07:00−17w239390 0.5 102920
10:00−16ssw238922 0.0 102994
13:00−12ese238411 0.0 1029287
16:00−10e46893 0.0 1027339
19:00−14e45914 0.0 102764
22:00−16se239021 0.0 102622